Location: Asheville, NC
(35.6000°N, 82.5500°W)
Time: 09:08:24
(UTC-04:00)

LilacSat-2 - Pass Details

Date: 12 January 2018
Orbit: 515 x 536 km, 97.5° (Epoch: 26 April)

Event Time Altitude Azimuth Distance (km) Brightness Sun altitude
Rises 06:08:26 0° 19° (NNE) 2,657 ? -18.3°
Reaches altitude 10° 06:10:38 10° 26° (NNE) 1,760 ? -17.8°
Maximum altitude 06:14:15 43° 99° (E) 738 ? -17.1°
Drops below altitude 10° 06:17:50 10° 172° (S) 1,737 ? -16.4°
Sets 06:19:59 0° 179° (S) 2,617 ? -16.0°
